Location: Newark
(9.4667°S, 159.8167°E)
Time: 18:41:27
(UTC+00:00)

Courier 1B Rocket - Pass Details

Date: 25 November 2019
Orbit: 921 x 1202 km, 28.2° (Epoch: 14 December)

Event Time Altitude Azimuth Distance (km) Brightness Sun altitude
Rises 12:54:26 0° 271° (W) 4,092 - -59.6°
Reaches altitude 10° 12:57:41 10° 261° (W) 3,117 - -59.7°
Maximum altitude 13:04:27 32° 201° (SSW) 1,875 - -59.8°
Drops below altitude 10° 13:10:59 10° 139° (SE) 2,993 - -59.8°
Sets 13:14:02 0° 129° (SE) 3,908 - -59.7°
